Location: Carthage
(33.8834°N, 106.6595°W)
Time: 03:00:52
(UTC+00:00)

Cosmos 2322 Rocket - Pass Details

Date: 23 May 2026
Orbit: 831 x 850 km, 71.0° (Epoch: 9 June)

Event Time Altitude Azimuth Distance (km) Brightness Sun altitude
Rises 03:19:37 0° 343° (NNW) 3,408 6.3 -13.8°
Reaches altitude 10° 03:22:06 10° 346° (NNW) 2,472 5.4 -14.3°
Maximum altitude 03:27:43 62° 68° (ENE) 948 2.3 -15.2°
Enters shadow 03:31:13 23° 142° (SE) 1,711 3.2 -15.7°
